This is the latest recevied weather packets stored in our database for station/object VK3CG. If no packets are shown the sender has not sent any weather packets the latest 10 day(s).
| Time | Temp. | Humidity | Pressure | Rain* | Wind** | Luminosity | Snow |
|---|---|---|---|---|---|---|---|
| 1777358711 | 20.56° C | 35% | 1034.8 hPa | 0 mm | - | 58 W/m² | - |
| 1777357816 | 21.11° C | 34% | 1034.6 hPa | 0 mm | - | 70 W/m² | - |
| 1777356911 | 21.11° C | 33% | 1034.6 hPa | 0 mm | - | 86 W/m² | - |
| 1777356011 | 21.11° C | 36% | 1034.7 hPa | 0 mm | - | 120 W/m² | - |
| 1777355108 | 21.11° C | 37% | 1034.7 hPa | 0 mm | - | 102 W/m² | - |
| 1777354209 | 21.11° C | 37% | 1035 hPa | 0 mm | - | 137 W/m² | - |
| 1777353307 | 21.67° C | 37% | 1035.1 hPa | 0 mm | - | 134 W/m² | - |
| 1777352406 | 22.22° C | 35% | 1034.9 hPa | 0 mm | - | 130 W/m² | - |
| 1777351507 | 22.22° C | 35% | 1034.8 hPa | 0 mm | - | 309 W/m² | - |
| 1777350605 | 22.22° C | 34% | 1034.9 hPa | 0 mm | - | 343 W/m² | - |
| 1777349704 | 22.78° C | 33% | 1034.9 hPa | 0 mm | - | 554 W/m² | - |
| 1777348801 | 22.78° C | 32% | 1035.1 hPa | 0 mm | - | 155 W/m² | - |
| 1777347997 | 22.78° C | 33% | 1035.1 hPa | 0 mm | - | 538 W/m² | - |
| 1777347068 | 23.33° C | 34% | 1035.2 hPa | 0 mm | - | 524 W/m² | - |
| 1777346158 | 22.78° C | 33% | 1035.4 hPa | 0 mm | - | 589 W/m² | - |
| 1777345266 | 22.78° C | 36% | 1035.4 hPa | 0 mm | - | 624 W/m² | - |
| 1777344351 | 22.78° C | 38% | 1035.7 hPa | 0 mm | - | 612 W/m² | - |
| 1777343472 | 21.67° C | 39% | 1035.8 hPa | 0 mm | - | 619 W/m² | - |
| 1777342553 | 21.67° C | 40% | 1036.1 hPa | 0 mm | - | 483 W/m² | - |
| 1777341643 | 21.11° C | 44% | 1036.3 hPa | 0 mm | - | 601 W/m² | - |
| 1777340761 | 21.11° C | 46% | 1036.4 hPa | 0 mm | - | 606 W/m² | - |
| 1777339837 | 20° C | 50% | 1036.5 hPa | 0 mm | - | 596 W/m² | - |
| 1777338934 | 20° C | 53% | 1036.5 hPa | 0 mm | - | 582 W/m² | - |
| 1777338037 | 20° C | 56% | 1036.6 hPa | 0 mm | - | 566 W/m² | - |
| 1777337130 | 19.44° C | 58% | 1036.6 hPa | 0 mm | - | 547 W/m² | - |
* Rain latest hour (hover to see other rain measurements)
** Current wind speed in m/s (hover to see current wind gust speed)